Home   Weather   Liepāja   Past weeks

Flag for Latvia Past Weather in Liepāja, Latvia — Yesterday and Last 2 Weeks

Now
37 °F

Low clouds.


Feels Like: 27 °F
Forecast: 36 / 37 °F
Wind: 18 mph from Southwest

Location: Liepaja International Airport

Current Time: Jan 22, 2017 at 10:36:25 pm

Latest Report: Jan 22, 2017 at 9:50 pm


Visibility: N/A

Pressure: 30.27 "Hg

Humidity: 100%

Dew Point: 37 °F

Location of LiepājaLocation

Past Weather in Liepāja — Graph

°F

Liepāja Temperature Yesterday

Maximum temperature yesterday: 45 °F (at 2:20 pm)
Minimum temperature yesterday: 28 °F (at 2:50 am)
Average temperature yesterday: 35 °F

High & Low Weather Summary for the Past Weeks

 TemperatureHumidityPressure
High45 °F (Jan 21, 2:20 pm)100% (Jan 9, 10:50 am)30.57 "Hg (Jan 9, 10:50 am)
Low19 °F (Jan 10, 9:50 pm)63% (Jan 11, 8:20 pm)29.18 "Hg (Jan 12, 8:50 pm)
Average32 °F94%30.02 "Hg
* Reported Jan 7 9:20 pm — Jan 22 9:20 pm, Liepāja, Weather by CustomWeather, © 2017

Note: Actual official high and low records may vary slightly from our data, if they occured in-between our weather recording intervals... More about our weather records

Advertising

Liepāja Weather History for the Previous 24 Hours

Scroll right to see more
 ConditionsComfort  
Time TempWeatherWind HumidityBarometerVisibility
9:20 pm
Sun, Jan 22
37 °FLow clouds.15 mph93%30.27 "Hg5 mi
8:50 pm36 °FLow clouds.18 mph100%30.27 "HgN/A
8:20 pm36 °FLow clouds.16 mph100%30.27 "Hg6 mi
7:50 pm36 °FFog.17 mph100%30.27 "Hg4 mi
7:20 pm36 °FLow clouds.17 mph100%30.30 "Hg4 mi
6:50 pm36 °FFog.16 mph100%30.30 "Hg4 mi
6:20 pm36 °FFog.17 mph100%30.30 "Hg3 mi
5:50 pm36 °FFog.16 mph100%30.30 "Hg3 mi
5:20 pm36 °FFog.15 mph100%30.30 "Hg3 mi
4:50 pm36 °FFog.17 mph100%30.30 "Hg3 mi
4:20 pm36 °FFog.17 mph100%30.33 "Hg2 mi
3:50 pm36 °FFog.15 mph100%30.33 "Hg1 mi
3:20 pm36 °FFog.17 mph100%30.33 "Hg2 mi
2:50 pm36 °FLow clouds.17 mph100%30.33 "Hg4 mi
2:20 pm37 °FFog.15 mph100%30.33 "Hg2 mi
1:50 pm37 °FFog.17 mph100%30.33 "Hg4 mi
1:20 pm36 °FFog.17 mph100%30.36 "Hg2 mi
12:50 pm36 °FFog.14 mph100%30.36 "Hg2 mi
12:20 pm36 °FFog.15 mph100%30.36 "Hg2 mi
11:50 am36 °FLow clouds.15 mph100%30.36 "Hg4 mi
11:20 am36 °FFog.14 mph100%30.36 "Hg2 mi
10:50 am36 °FFog.14 mph100%30.36 "Hg1 mi
10:20 am36 °FFog.14 mph100%30.36 "Hg1 mi
9:50 am36 °FFog.13 mph100%30.36 "Hg1 mi
9:20 am36 °FFog.13 mph100%30.36 "Hg1 mi
8:50 am36 °FFog.13 mph100%30.36 "Hg1 mi
8:20 am36 °FFog.15 mph100%30.36 "Hg3 mi
7:50 am36 °FFog.14 mph100%30.39 "Hg3 mi
7:20 am36 °FFog.13 mph100%30.39 "Hg2 mi
6:50 am36 °FFog.12 mph100%30.39 "Hg2 mi
6:20 am36 °FFog.15 mph100%30.39 "Hg2 mi
5:50 am36 °FFog.12 mph100%30.39 "Hg1 mi
5:20 am36 °FFog.12 mph100%30.39 "Hg1 mi
4:50 am36 °FFog.13 mph100%30.39 "Hg1 mi
4:20 am36 °FFog.14 mph100%30.39 "Hg1 mi
3:50 am36 °FFog.12 mph100%30.42 "Hg1 mi
3:20 am36 °FFog.10 mph100%30.42 "Hg1 mi
2:50 am36 °FFog.12 mph100%30.42 "Hg1 mi
2:20 am36 °FFog.9 mph100%30.42 "Hg1 mi
1:50 am36 °FFog.10 mph100%30.42 "Hg1 mi
1:20 am36 °FFog.10 mph100%30.42 "Hg1 mi
12:50 am36 °FFog.9 mph100%30.42 "Hg1 mi
12:20 am36 °FFog.7 mph100%30.39 "Hg1 mi
11:50 pm
Sat, Jan 21
34 °FFog.5 mph100%30.39 "Hg1 mi
11:20 pm34 °FFog.7 mph100%30.39 "Hg1 mi
10:50 pm32 °FFog.3 mph100%30.39 "Hg1 mi
10:20 pm32 °FFog.2 mph100%30.39 "Hg1 mi
Weather by CustomWeather, © 2017

See weather overviewHow to use our weather pages